Location: Slave Lake
(55.2830°N, 114.7830°W)
Time: 21:39:04
(UTC-06:00)

Amateur Radio Satellites - All Passes

Search period start: 17 September 2014 21:09
Search period end: 18 September 2014 21:09
Location: Slave Lake, 55.2830°N, 114.7830°W

Satellite Date Start Highest point End Downlink Frequencies (MHz)
Time Altitude Azimuth
PCSat 17 Sep 21:30:27 21:35:55 72° 44° (NE) 21:41:21 145.825 MHz
HO-68 17 Sep 21:34:05 21:41:15 82° 251° (WSW) 21:48:28 435.675 MHz FM
FUNcube-1 17 Sep 21:45:46 21:49:28 26° 59° (ENE) 21:53:15 145.950 - 145.970 MHz USB
KITSAT 1 17 Sep 21:52:21 22:00:26 79° 129° (SE) 22:08:32 435.175 FM
Oscar 11 17 Sep 22:00:45 22:05:05 64° 70° (ENE) 22:09:27 145.825 FM, Beacon 2401.500 USB
UKube-1 17 Sep 22:15:27 22:19:47 70° 256° (WSW) 22:24:09 145.840 MHz, 145.915 MHz
Saudisat 1A 17 Sep 22:22:05 22:25:53 27° 348° (NNW) 22:29:41 436.775 MHz
STRAND 1 17 Sep 22:43:26 22:47:07 20° 309° (NW) 22:50:47 ?
Sapphire 17 Sep 22:46:44 22:51:55 46° 240° (WSW) 22:57:05 437.095 MHz 1200 baud AX-25 AFSK
PCSat 17 Sep 23:14:19 23:18:59 30° 246° (WSW) 23:23:37 145.825 MHz
FUNcube-1 17 Sep 23:21:14 23:25:35 56° 259° (W) 23:30:06 145.950 - 145.970 MHz USB
HO-68 17 Sep 23:24:46 23:30:05 22° 274° (W) 23:35:27 435.675 MHz FM
Oscar 11 17 Sep 23:38:25 23:41:42 21° 270° (W) 23:45:00 145.825 FM, Beacon 2401.500 USB
KITSAT 1 17 Sep 23:48:37 23:56:28 50° 335° (NNW) 00:04:19 435.175 FM
UKube-1 17 Sep 23:55:30 23:56:50 11° 276° (W) 23:58:10 145.840 MHz, 145.915 MHz
Saudisat 1A 18 Sep 00:02:48 00:06:37 27° 12° (NNE) 00:10:25 436.775 MHz
SO-50 18 Sep 00:08:21 00:12:28 35° 123° (ESE) 00:16:42 436.795 FM
AO-40 18 Sep 00:21:13 01:11:50 11° 122° (ESE) 01:49:43 Beacon 2401.320
Saudisat 1A 18 Sep 01:42:34 01:46:58 59° 35° (NE) 01:51:20 436.775 MHz
KITSAT 1 18 Sep 01:46:08 01:53:39 39° 4° (N) 02:01:10 435.175 FM
SO-50 18 Sep 01:48:23 01:52:54 59° 325° (NW) 01:57:33 436.795 FM
UOSAT-12 18 Sep 01:56:31 02:00:47 37° 124° (SE) 02:05:08 437.025 FM, 437.400 FM
Oscar 10/S400 18 Sep 01:56:59 02:47:58 30° 216° (SW) 06:47:05 145.825 - 145.975 CW/USB, Beacon 145.810 USB
Oscar 19 18 Sep 02:08:53 02:12:34 19° 87° (E) 02:16:13 437.125 CW, 437.150 USB
AO-27 18 Sep 02:23:17 02:25:24 12° 82° (E) 02:27:30 436.795 MHz FM
Oscar 16 18 Sep 02:46:46 02:51:35 36° 96° (E) 02:56:20 437.025 USB, Beacon 2401.1428
JAS-1B 18 Sep 02:53:45 02:58:31 24° 88° (E) 03:03:04 435.800 - 435.900 CW/SSB
OPAL 18 Sep 02:54:54 02:57:52 16° 42° (NE) 03:00:50 ?
Gurwin Techsat 1B 18 Sep 03:05:03 03:07:57 15° 83° (E) 03:10:51 435.225 FM
AO-Echo 18 Sep 03:14:27 03:18:45 32° 95° (E) 03:23:06 ?
Saudisat 1A 18 Sep 03:22:24 03:26:24 33° 237° (WSW) 03:30:22 436.775 MHz
ITAMSAT 1 18 Sep 03:26:24 03:31:12 35° 96° (E) 03:35:58 435.822 SSB
SO-50 18 Sep 03:30:15 03:34:17 29° 349° (N) 03:38:26 436.795 FM
Uribyol 2 18 Sep 03:31:02 03:35:57 40° 97° (E) 03:40:52 436.500 FM
UOSAT-12 18 Sep 03:36:11 03:40:49 59° 325° (NW) 03:45:32 437.025 FM, 437.400 FM
TMSAT-1 18 Sep 03:42:32 03:46:35 22° 88° (E) 03:50:37 436.925 FM
KITSAT 1 18 Sep 03:42:40 03:50:40 58° 31° (NNE) 03:58:37 435.175 FM
Oscar 19 18 Sep 03:47:24 03:52:38 86° 288° (WNW) 03:57:48 437.125 CW, 437.150 USB
AO-27 18 Sep 04:00:48 04:06:00 63° 103° (ESE) 04:11:11 436.795 MHz FM
Oscar 16 18 Sep 04:26:07 04:31:05 46° 296° (WNW) 04:36:01 437.025 USB, Beacon 2401.1428
ISS 18 Sep 04:27:19 04:28:10 11° 142° (SE) 04:29:02 145.800 FM
AO-7 18 Sep 04:29:28 04:35:10 20° 84° (E) 04:40:49 29.400 - 29.500 MHz
OPAL 18 Sep 04:30:42 04:35:46 55° 63° (ENE) 04:40:53 ?
RS-15 18 Sep 04:39:00 04:47:48 29° 105° (ESE) 04:56:32 29.354 - 29.394 USB, Beacon 29.352 USB
Gurwin Techsat 1B 18 Sep 04:43:34 04:48:54 73° 104° (ESE) 04:54:13 435.225 FM
JAS-1B 18 Sep 04:43:57 04:50:01 71° 292° (WNW) 04:55:39 435.800 - 435.900 CW/SSB
AO-Echo 18 Sep 04:53:09 04:57:43 47° 294° (WNW) 05:02:23 ?
ITAMSAT 1 18 Sep 05:05:52 05:10:52 48° 296° (WNW) 05:15:52 435.822 SSB
Uribyol 2 18 Sep 05:10:35 05:15:31 43° 298° (WNW) 05:20:25 436.500 FM
SO-50 18 Sep 05:11:54 05:16:03 30° 13° (NNE) 05:20:16 436.795 FM
STRAND 1 18 Sep 05:11:55 05:14:32 14° 45° (NE) 05:17:10 ?
UOSAT-12 18 Sep 05:17:40 05:21:48 29° 349° (NNW) 05:25:58 437.025 FM, 437.400 FM
TMSAT-1 18 Sep 05:21:48 05:27:08 79° 289° (WNW) 05:32:27 436.925 FM
Oscar 19 18 Sep 05:27:35 05:31:20 21° 309° (NW) 05:35:05 437.125 CW, 437.150 USB
KITSAT 1 18 Sep 05:38:21 05:46:18 62° 237° (WSW) 05:54:11 435.175 FM
AO-27 18 Sep 05:40:47 05:45:14 29° 303° (WNW) 05:49:40 436.795 MHz FM
ISS 18 Sep 06:01:10 06:04:08 30° 161° (SSE) 06:07:07 145.800 FM
Uosat F 18 Sep 06:01:21 06:06:17 54° 101° (E) 06:11:13 435.120 FM
Oscar 16 18 Sep 06:07:11 06:09:19 13° 318° (NW) 06:11:26 437.025 USB, Beacon 2401.1428
OPAL 18 Sep 06:10:19 06:14:56 32° 263° (W) 06:19:36 ?
AO-7 18 Sep 06:21:18 06:29:36 69° 107° (ESE) 06:37:51 29.400 - 29.500 MHz
Gurwin Techsat 1B 18 Sep 06:24:07 06:28:29 27° 305° (NW) 06:32:50 435.225 FM
AO-Echo 18 Sep 06:33:59 06:35:30 11° 315° (NW) 06:37:01 ?
JAS-1B 18 Sep 06:35:33 06:39:40 19° 318° (NW) 06:43:34 435.800 - 435.900 CW/SSB
Hamsat 18 Sep 06:38:22 06:41:30 19° 89° (E) 06:44:36 145.90 MHz
ITAMSAT 1 18 Sep 06:46:59 06:49:16 13° 317° (NW) 06:51:34 435.822 SSB
RS-15 18 Sep 06:47:35 06:58:32 80° 131° (SE) 07:09:30 29.354 - 29.394 USB, Beacon 29.352 USB
STRAND 1 18 Sep 06:47:48 06:52:46 55° 66° (ENE) 06:57:46 ?
Uribyol 2 18 Sep 06:51:56 06:53:48 12° 319° (NW) 06:55:39 436.500 FM
SO-50 18 Sep 06:52:39 06:57:23 64° 36° (NE) 07:02:12 436.795 FM
UOSAT-12 18 Sep 06:58:58 07:03:09 30° 13° (NNE) 07:07:20 437.025 FM, 437.400 FM
TMSAT-1 18 Sep 07:02:39 07:06:21 20° 310° (NW) 07:10:03 436.925 FM
JAS-2 18 Sep 07:16:38 07:22:09 47° 99° (E) 07:28:20 435.800 - 435.900 CW/SSB, 435.910 FM
KITSAT 1 18 Sep 07:35:10 07:40:09 18° 259° (W) 07:45:07 435.175 FM
ISS 18 Sep 07:37:17 07:40:29 45° 181° (S) 07:43:42 145.800 FM
Uosat F 18 Sep 07:40:29 07:44:54 32° 301° (WNW) 07:49:19 435.120 FM
SO-67 18 Sep 07:42:03 07:43:25 12° 87° (E) 07:44:47 435.3500 MHz FM
Hamsat 18 Sep 08:13:38 08:17:55 65° 289° (WNW) 08:22:07 145.90 MHz
AO-7 18 Sep 08:14:28 08:22:06 43° 310° (NW) 08:29:43 29.400 - 29.500 MHz
STRAND 1 18 Sep 08:27:51 08:32:16 30° 267° (W) 08:36:44 ?
SO-50 18 Sep 08:33:29 08:37:48 34° 237° (WSW) 08:42:09 436.795 FM
UOSAT-12 18 Sep 08:39:21 08:44:06 63° 36° (NE) 08:48:47 437.025 FM, 437.400 FM
MaSat-1 18 Sep 08:50:07 08:52:57 15° 104° (ESE) 08:55:46 437.345 MHz
HO-68 18 Sep 08:55:34 08:58:57 14° 79° (E) 09:02:21 435.675 MHz FM
RS-15 18 Sep 09:00:55 09:11:41 58° 341° (NNW) 09:22:37 29.354 - 29.394 USB, Beacon 29.352 USB
JAS-2 18 Sep 09:02:01 09:07:18 42° 298° (WNW) 09:13:09 435.800 - 435.900 CW/SSB, 435.910 FM
SO-67 18 Sep 09:13:29 09:16:58 78° 286° (WNW) 09:20:25 435.3500 MHz FM
ISS 18 Sep 09:13:54 09:16:49 28° 201° (SSW) 09:19:44 145.800 FM
Hamsat 18 Sep 09:51:08 09:53:06 13° 310° (NW) 09:55:03 145.90 MHz
UKube-1 18 Sep 09:57:59 09:59:55 13° 85° (E) 10:01:50 145.840 MHz, 145.915 MHz
AO-7 18 Sep 10:07:33 10:12:58 20° 336° (NNW) 10:18:22 29.400 - 29.500 MHz
UOSAT-12 18 Sep 10:19:48 10:24:04 34° 237° (WSW) 10:28:18 437.025 FM, 437.400 FM
MaSat-1 18 Sep 10:24:01 10:29:03 71° 123° (ESE) 10:33:51 437.345 MHz
HO-68 18 Sep 10:41:19 10:48:23 56° 102° (ESE) 10:55:25 435.675 MHz FM
SO-67 18 Sep 10:48:22 10:49:23 11° 306° (NW) 10:50:24 435.3500 MHz FM
JAS-2 18 Sep 10:49:06 10:51:12 12° 320° (NW) 10:53:21 435.800 - 435.900 CW/SSB, 435.910 FM
FUNcube-1 18 Sep 11:03:32 11:06:59 20° 89° (E) 11:10:24 145.950 - 145.970 MHz USB
RS-15 18 Sep 11:15:25 11:26:09 55° 14° (NNE) 11:37:09 29.354 - 29.394 USB, Beacon 29.352 USB
Oscar 11 18 Sep 11:17:15 11:21:30 47° 99° (E) 11:25:41 145.825 FM, Beacon 2401.500 USB
UKube-1 18 Sep 11:32:29 11:36:53 78° 105° (ESE) 11:41:15 145.840 MHz, 145.915 MHz
Oscar 19 18 Sep 11:56:33 11:59:16 14° 45° (NE) 12:01:58 437.125 CW, 437.150 USB
JAS-1B 18 Sep 11:58:41 12:03:15 18° 41° (NE) 12:07:26 435.800 - 435.900 CW/SSB
AO-7 18 Sep 11:58:44 12:02:48 15° 3° (N) 12:06:51 29.400 - 29.500 MHz
MaSat-1 18 Sep 12:01:43 12:06:13 33° 323° (NW) 12:10:29 437.345 MHz
AO-27 18 Sep 12:12:52 12:14:06 11° 39° (NE) 12:15:20 436.795 MHz FM
PCSat 18 Sep 12:23:09 12:25:12 12° 102° (ESE) 12:27:15 145.825 MHz
HO-68 18 Sep 12:29:18 12:36:03 46° 304° (WNW) 12:42:47 435.675 MHz FM
Oscar 16 18 Sep 12:33:16 12:37:20 24° 54° (NE) 12:41:26 437.025 USB, Beacon 2401.1428
FUNcube-1 18 Sep 12:39:14 12:43:52 72° 289° (WNW) 12:48:28 145.950 - 145.970 MHz USB
Oscar 11 18 Sep 12:53:46 12:57:32 29° 299° (WNW) 13:01:15 145.825 FM, Beacon 2401.500 USB
Gurwin Techsat 1B 18 Sep 12:56:49 12:58:56 12° 41° (NE) 13:01:03 435.225 FM
AO-Echo 18 Sep 12:58:08 13:01:17 18° 52° (NE) 13:04:26 ?
UKube-1 18 Sep 13:09:29 13:12:38 20° 305° (NW) 13:15:45 145.840 MHz, 145.915 MHz
ITAMSAT 1 18 Sep 13:13:53 13:17:57 24° 53° (NE) 13:22:02 435.822 SSB
Uribyol 2 18 Sep 13:18:11 13:22:26 26° 55° (NE) 13:26:42 436.500 FM
RS-15 18 Sep 13:28:38 13:39:42 90° 44° (NE) 13:51:08 29.354 - 29.394 USB, Beacon 29.352 USB
Oscar 19 18 Sep 13:32:33 13:37:37 55° 66° (ENE) 13:42:42 437.125 CW, 437.150 USB
TMSAT-1 18 Sep 13:33:18 13:36:30 17° 47° (NE) 13:39:42 436.925 FM
Sapphire 18 Sep 13:35:34 13:40:28 36° 117° (ESE) 13:45:23 437.095 MHz 1200 baud AX-25 AFSK
MaSat-1 18 Sep 13:41:23 13:44:18 16° 345° (NNW) 13:47:06 437.345 MHz
JAS-1B 18 Sep 13:44:54 13:52:42 52° 63° (ENE) 13:59:15 435.800 - 435.900 CW/SSB
AO-7 18 Sep 13:46:49 13:52:46 23° 30° (NNE) 13:58:43 29.400 - 29.500 MHz
AO-27 18 Sep 13:47:35 13:52:20 39° 61° (ENE) 13:57:08 436.795 MHz FM
PCSat 18 Sep 14:02:13 14:07:30 56° 123° (ESE) 14:12:49 145.825 MHz
Oscar 16 18 Sep 14:11:00 14:16:13 81° 254° (WSW) 14:21:28 437.025 USB, Beacon 2401.1428
FUNcube-1 18 Sep 14:16:49 14:19:32 16° 309° (NW) 14:22:14 145.950 - 145.970 MHz USB
HO-68 18 Sep 14:17:50 14:22:11 18° 328° (NNW) 14:26:32 435.675 MHz FM
Gurwin Techsat 1B 18 Sep 14:32:42 14:37:43 45° 63° (ENE) 14:42:46 435.225 FM
AO-Echo 18 Sep 14:34:44 14:39:28 85° 73° (ENE) 14:44:12 ?
ITAMSAT 1 18 Sep 14:51:47 14:56:58 80° 254° (WSW) 15:02:12 435.822 SSB
Uribyol 2 18 Sep 14:56:22 15:01:32 71° 256° (WSW) 15:06:45 436.500 FM
TMSAT-1 18 Sep 15:10:19 15:15:32 63° 68° (ENE) 15:20:47 436.925 FM
Oscar 19 18 Sep 15:12:40 15:17:15 31° 267° (W) 15:21:52 437.125 CW, 437.150 USB
Sapphire 18 Sep 15:18:19 15:23:42 62° 319° (NW) 15:29:07 437.095 MHz 1200 baud AX-25 AFSK
MaSat-1 18 Sep 15:20:19 15:22:51 14° 9° (N) 15:25:14 437.345 MHz
AO-27 18 Sep 15:26:55 15:31:51 44° 262° (W) 15:36:50 436.795 MHz FM
JAS-1B 18 Sep 15:35:29 15:43:27 48° 261° (W) 15:50:10 435.800 - 435.900 CW/SSB
AO-7 18 Sep 15:35:59 15:43:57 53° 55° (NE) 15:51:55 29.400 - 29.500 MHz
RS-15 18 Sep 15:41:20 15:50:59 37° 250° (WSW) 16:00:57 29.354 - 29.394 USB, Beacon 29.352 USB
Uosat F 18 Sep 15:44:06 15:48:29 31° 58° (ENE) 15:52:52 435.120 FM
PCSat 18 Sep 15:45:54 15:51:07 45° 326° (NW) 15:56:22 145.825 MHz
Oscar 16 18 Sep 15:53:16 15:56:26 16° 275° (W) 15:59:37 437.025 USB, Beacon 2401.1428
JAS-2 18 Sep 15:56:50 15:58:28 11° 39° (NE) 16:00:06 435.800 - 435.900 CW/SSB, 435.910 FM
Gurwin Techsat 1B 18 Sep 16:12:51 16:17:48 39° 264° (W) 16:22:47 435.225 FM
AO-Echo 18 Sep 16:15:53 16:18:56 17° 273° (W) 16:21:59 ?
ITAMSAT 1 18 Sep 16:34:16 16:37:21 16° 275° (W) 16:40:27 435.822 SSB
Uribyol 2 18 Sep 16:39:22 16:42:00 14° 277° (W) 16:44:38 436.500 FM
TMSAT-1 18 Sep 16:51:26 16:55:53 27° 269° (W) 17:00:22 436.925 FM
MaSat-1 18 Sep 16:57:14 17:01:04 28° 34° (NNE) 17:04:28 437.345 MHz
Sapphire 18 Sep 17:03:29 17:08:07 28° 343° (NNW) 17:12:47 437.095 MHz 1200 baud AX-25 AFSK
Uosat F 18 Sep 17:22:11 17:27:05 54° 259° (W) 17:32:01 435.120 FM
AO-7 18 Sep 17:28:45 17:36:51 54° 258° (WSW) 17:44:58 29.400 - 29.500 MHz
PCSat 18 Sep 17:31:21 17:35:48 25° 351° (N) 17:40:16 145.825 MHz
JAS-1B 18 Sep 17:33:28 17:35:41 11° 282° (WNW) 17:37:48 435.800 - 435.900 CW/SSB
JAS-2 18 Sep 17:37:25 17:42:19 44° 63° (ENE) 17:47:17 435.800 - 435.900 CW/SSB, 435.910 FM
Hamsat 18 Sep 17:38:18 17:42:16 35° 64° (ENE) 17:46:14 145.90 MHz
Saudisat 1A 18 Sep 17:38:37 17:39:33 11° 110° (ESE) 17:40:30 436.775 MHz
HO-68 18 Sep 17:49:17 17:51:54 12° 20° (NNE) 17:54:30 435.675 MHz FM
OPAL 18 Sep 18:12:06 18:16:59 39° 99° (E) 18:21:47 ?
SO-67 18 Sep 18:21:58 18:23:56 15° 58° (ENE) 18:25:54 435.3500 MHz FM
MaSat-1 18 Sep 18:34:02 18:38:15 65° 238° (WSW) 18:41:51 437.345 MHz
Sapphire 18 Sep 18:48:43 18:53:10 25° 9° (N) 18:57:37 437.095 MHz 1200 baud AX-25 AFSK
STRAND 1 18 Sep 18:53:35 18:54:36 11° 81° (E) 18:55:37 ?
Saudisat 1A 18 Sep 19:13:55 19:18:13 54° 130° (SE) 19:22:33 436.775 MHz
Hamsat 18 Sep 19:14:10 19:18:14 37° 264° (W) 19:22:19 145.90 MHz
PCSat 18 Sep 19:16:12 19:20:51 27° 16° (NNE) 19:25:29 145.825 MHz
JAS-2 18 Sep 19:22:52 19:27:39 36° 265° (W) 19:32:28 435.800 - 435.900 CW/SSB, 435.910 FM
AO-7 18 Sep 19:27:42 19:31:45 14° 282° (WNW) 19:35:49 29.400 - 29.500 MHz
HO-68 18 Sep 19:31:36 19:37:25 28° 45° (NE) 19:43:15 435.675 MHz FM
OPAL 18 Sep 19:51:01 19:55:58 45° 300° (WNW) 20:00:51 ?
SO-67 18 Sep 19:53:04 19:56:32 73° 257° (WSW) 20:00:01 435.3500 MHz FM
KITSAT 1 18 Sep 20:14:45 20:21:47 35° 112° (ESE) 20:28:51 435.175 FM
STRAND 1 18 Sep 20:29:54 20:34:58 56° 101° (ESE) 20:40:01 ?
Sapphire 18 Sep 20:32:40 20:37:53 44° 34° (NNE) 20:43:05 437.095 MHz 1200 baud AX-25 AFSK
Oscar 11 18 Sep 20:44:59 20:47:52 18° 54° (NE) 20:50:46 145.825 FM, Beacon 2401.500 USB
Saudisat 1A 18 Sep 20:53:44 20:57:57 42° 331° (NNW) 21:02:12 436.775 MHz
UKube-1 18 Sep 20:59:39 21:03:22 29° 60° (ENE) 21:07:06 145.840 MHz, 145.915 MHz
